Regional Weather Roundup
Issued by NWS Little Rock, AR

Home | Current Version | Previous Version | Graphics & Text | Print | Product List | Glossary On
Versions: 1 2 3 4 5 6 7 8 9 10 11 12 13 14 15 16 17 18 19 20 21 22 23 24 25 26 27 28 29 30 31 32 33 34 35 36 37 38 39 40 41 42 43 44 45 46
000
ASUS44 KLZK 221705
RWRLZK

WEATHER ROUNDUP FOR ARKANSAS
NATIONAL WEATHER SERVICE LITTLE ROCK AR
1200 PM CDT FRI MAY 22 2015

NOTE: "FAIR" INDICATES FEW OR NO CLOUDS BELOW 12,000 FEET WITH NO
SIGNIFICANT WEATHER AND/OR OBSTRUCTIONS TO VISIBILITY.

ARZ001-003-010-029-221800-
NORTHWEST ARKANSAS

CITY           SKY/WX    TMP DP  RH WIND       PRES   REMARKS
FAYETTEVILLE   CLOUDY    62  47  57 VRB3      30.28R
FORT SMITH     CLOUDY    64  47  53 E14       30.26S
HARRISON       MOSUNNY   64  47  53 SE7       30.29S
BENTONVILLE    PTSUNNY   63  45  51 SE3       30.29R
ROGERS         PTSUNNY   62  47  57 VRB5      30.29S
SILOAM SPGS    CLOUDY    61  45  55 SE3       30.29S
HIGHFILL       CLOUDY    62  49  62 SE6       30.28R
SPRINGDALE     MOSUNNY   63  45  51 SE5       30.30F
$$

ARZ004-005-016-221800-
NORTH CENTRAL ARKANSAS

CITY           SKY/WX    TMP DP  RH WIND       PRES   REMARKS
BATESVILLE     SUNNY     66  46  48 SE5       30.30F
FLIPPIN        SUNNY     64  46  52 E6        30.28F
MTN HOME       SUNNY     65  47  52 SE8       30.29F
$$

ARZ040-041-221800-
WEST CENTRAL ARKANSAS

CITY           SKY/WX    TMP DP  RH WIND       PRES   REMARKS
MENA           PTSUNNY   68  50  52 E6G16     30.23F
MOUNT IDA      MOSUNNY   65  49  56 VRB3      30.23F
$$

ARZ009-017-025-026-028-221800-
NORTHEAST ARKANSAS

CITY           SKY/WX    TMP DP  RH WIND       PRES   REMARKS
CORNING          N/A     66  46  48 S5        30.32S
JONESBORO      SUNNY     64  46  52 E7        30.30F
NEWPORT        SUNNY     66  47  50 SE6       30.32F
WALNUT RIDGE   SUNNY     64  46  52 S7        30.31F
BLYTHEVILLE    SUNNY     66  49  54 VRB3      30.30F
NW BLYTHEVILLE SUNNY     68  45  42 SE5       30.30
$$

ARZ022-023-033-042-044-221800-
CENTRAL ARKANSAS

CITY           SKY/WX    TMP DP  RH WIND       PRES   REMARKS
LITTLE ROCK    MOSUNNY   65  47  52 E9        30.29F
N LITTLE ROCK  MOSUNNY   66  53  63 E12       30.29F
JACKSONVILLE   SUNNY     65  49  56 E8        30.29S
HOT SPRINGS    MOSUNNY   65  48  54 E9        30.26F
RUSSELLVILLE   SUNNY     64  48  56 E6G16     30.28F
CLINTON        FAIR      64  48  55 E6        30.31S
$$

ARZ036-221800-
EAST ARKANSAS

CITY           SKY/WX    TMP DP  RH WIND       PRES   REMARKS
WEST MEMPHIS   SUNNY     65  48  54 CALM      30.29S
$$

ARZ050-053-066-070-073-221800-
SOUTHWEST ARKANSAS

CITY           SKY/WX    TMP DP  RH WIND       PRES   REMARKS
ARKADELPHIA    FAIR      68  54  60 VRB5      30.26F
CAMDEN         SUNNY     68  48  49 NE7G18    30.25F
TEXARKANA      SUNNY     66  53  63 E9G16     30.22F
EL DORADO      SUNNY     66  51  58 E12       30.25F
DE QUEEN       MOSUNNY   66  50  56 E14       30.21F
$$

ARZ056-057-069-221800-
SOUTHEAST ARKANSAS

CITY           SKY/WX    TMP DP  RH WIND       PRES   REMARKS
PINE BLUFF     SUNNY     65  50  58 E9        30.28F
STUTTGART      SUNNY     64  48  55 E5        30.29F
MONTICELLO     SUNNY     66  48  52 E7G16     30.26F

$$





USA.gov is the U.S. government's official web portal to all federal, state and local government web resources and services.